GFSSGP_sfc_rhum_021.txt.gz
RH
69 66 62 59 32 36 45 43 38 38 41 40 35 37 45 52 49 53 62 52 55 52 54 63 85 82 80 82 84 83 84 82 84 85 83 82 82 78 77 76 74 74 73 72 71 72 73 72 74
60 65 57 41 36 36 41 39 40 39 37 34 37 39 41 60 64 74 63 61 52 51 52 54 87 84 82 82 84 84 81 79 80 81 81 80 79 77 76 75 74 72 71 71 71 71 71 73 74
63 51 40 35 44 35 39 38 38 37 33 31 41 40 47 60 66 58 57 60 58 56 52 60 87 85 80 81 84 84 83 81 79 79 78 78 78 76 74 73 72 73 72 72 71 72 71 73 75
45 32 33 39 39 40 41 36 34 31 34 30 39 48 50 55 52 53 60 60 62 59 53 76 86 81 80 81 84 83 82 83 81 79 78 78 78 77 74 74 73 72 74 72 71 71 71 71 73
33 33 35 47 38 40 37 36 34 33 37 35 36 53 58 65 57 60 63 59 62 61 56 65 86 85 84 84 83 83 82 80 78 77 77 76 76 76 75 74 73 73 74 72 71 71 72 72 73
30 31 34 35 32 33 33 34 36 36 38 37 46 52 63 68 64 62 61 61 54 59 57 63 82 86 85 82 81 80 79 78 76 74 74 75 78 78 77 73 76 73 74 73 72 72 70 73 74
32 33 43 37 35 30 32 38 36 36 36 38 43 53 63 71 65 64 64 63 61 61 64 66 67 74 81 81 80 80 78 78 77 76 76 76 77 76 73 72 74 74 76 76 74 73 72 73 74
32 31 43 42 32 23 29 35 35 32 39 35 40 55 53 61 65 67 71 71 67 66 65 66 69 68 73 71 82 83 82 78 77 76 76 76 74 73 71 79 78 75 73 76 72 76 75 78 76
30 27 40 35 32 19 31 32 35 31 35 36 37 44 46 63 66 69 72 72 76 74 70 70 68 74 77 77 75 83 79 77 76 74 75 73 58 59 59 71 78 74 73 74 75 74 76 79 77
18 24 30 27 29 18 21 30 34 33 37 43 46 58 57 65 69 68 69 68 72 76 79 70 72 71 76 67 79 75 70 62 64 66 69 62 62 67 59 68 78 73 72 73 73 74 75 73 59
21 19 23 18 24 24 19 28 29 32 40 36 43 65 65 64 67 64 61 61 67 67 68 71 71 73 70 75 70 83 67 74 70 77 80 78 69 71 59 64 62 63 70 55 59 64 60 71 77
14 14 18 11 16 22 25 27 32 32 25 28 34 55 63 64 66 65 68 70 68 68 65 67 72 77 78 76 70 75 83 87 84 89 88 94 96 76 68 62 66 73 62 67 69 71 71 72 79
12 11 11 11 14 16 23 25 25 30 28 29 42 58 61 61 66 64 60 64 64 68 67 70 75 80 83 84 81 77 74 71 86 86 79 87 97 92 69 68 68 67 66 65 78 76 74 77 77
12 14 14 16 17 20 22 23 26 31 38 47 54 60 59 63 66 65 67 69 68 64 66 68 76 79 80 87 86 78 74 87 71 82 82 76 92 92 87 69 71 70 68 66 76 70 71 76 79
17 13 15 19 21 20 21 26 30 40 46 55 58 61 65 68 68 71 68 70 68 67 65 72 72 73 81 84 78 74 67 65 62 65 78 75 74 75 80 89 68 66 71 82 83 78 76 69 70
16 16 15 17 21 20 18 21 31 49 50 56 61 64 68 71 68 66 68 70 71 72 79 73 68 74 80 83 79 76 70 72 68 64 63 73 76 79 78 74 65 60 66 65 65 78 68 80 82
17 13 20 21 22 20 19 21 42 51 53 57 60 62 64 66 64 64 63 63 70 74 78 79 80 79 85 86 85 84 83 74 72 71 68 76 76 74 76 66 62 70 60 62 66 71 70 69 85
13 18 21 25 19 17 19 23 36 52 53 54 56 62 64 60 58 59 64 66 72 75 79 80 77 88 90 93 89 86 83 76 73 74 73 78 75 79 81 79 74 72 63 64 64 72 70 70 75
21 19 20 19 16 20 23 28 36 49 55 56 58 65 62 59 60 57 63 71 73 72 77 86 88 89 92 87 87 80 75 83 78 84 86 84 84 79 82 73 77 76 73 69 78 84 79 70 72
19 20 18 16 21 23 24 26 35 46 52 54 52 55 56 58 59 59 72 72 70 70 79 82 84 88 90 89 85 81 84 79 83 86 83 81 81 85 92 94 88 79 76 77 76 80 67 70 70
18 18 19 17 16 27 31 22 30 40 51 50 50 50 49 50 58 60 69 72 61 67 84 76 79 85 87 89 88 85 84 83 81 75 72 77 74 78 87 95 96 97 97 90 92 86 82 65 88
20 17 16 16 16 14 22 14 26 26 34 42 46 48 46 51 60 61 63 70 67 62 65 73 81 85 87 90 89 88 85 78 75 74 72 73 75 75 76 80 82 91 99 99 97 91 86 76 72
18 15 16 16 16 19 19 15 17 32 30 28 40 44 44 44 53 57 58 62 65 70 73 74 82 90 90 88 85 76 74 68 71 72 83 83 80 78 73 76 77 79 88 96 98 96 92 88 64
15 16 17 21 17 17 20 17 14 19 31 32 32 39 43 44 47 52 59 65 64 56 62 65 76 88 88 82 78 81 80 82 79 89 91 88 71 71 80 79 79 77 76 83 90 95 91 90 80
16 18 21 18 18 17 27 24 22 24 31 35 36 35 41 43 47 53 68 70 65 58 57 60 76 88 88 77 77 77 84 84 85 89 89 85 78 71 78 83 87 78 79 81 87 89 88 86 74
18 18 19 24 18 16 28 24 18 38 47 51 44 38 39 43 49 56 68 67 65 60 59 61 76 87 84 76 78 82 83 72 75 84 80 83 91 90 84 80 80 77 77 76 78 73 87 86 90
18 19 15 24 29 18 17 20 24 44 45 55 45 45 46 49 66 64 63 65 67 64 63 62 80 85 78 76 78 81 79 82 81 84 82 78 89 86 87 79 78 78 79 81 84 85 86 79 85
16 16 18 19 31 27 21 28 20 36 41 50 61 52 52 62 64 70 67 64 62 67 69 77 77 78 76 75 72 74 78 79 81 79 82 85 88 87 88 90 82 78 80 81 85 90 84 86 90
16 16 20 18 21 19 21 18 28 34 34 43 56 51 51 52 63 74 71 67 68 77 81 73 71 74 74 74 73 73 74 75 78 78 82 81 84 90 90 95 93 88 82 81 88 87 82 83 88
15 17 22 18 32 26 23 16 20 35 40 48 54 50 51 50 56 63 73 79 84 83 68 66 67 66 69 74 72 73 73 75 75 77 80 78 85 89 88 90 93 93 93 93 89 86 86 85 85

GFSSGP_sfc_rhum_024.txt.gz
RH
58 42 36 37 21 20 23 28 19 23 27 25 27 24 29 33 36 52 38 34 35 35 43 54 84 83 80 82 85 85 86 84 84 84 81 80 79 78 76 76 77 75 74 72 72 70 69 72 71
36 40 36 23 20 22 27 22 27 27 27 26 24 24 24 39 41 48 41 41 35 34 40 44 87 84 81 83 84 85 84 82 83 84 82 80 78 77 75 74 73 72 71 71 70 71 70 72 73
42 32 24 17 19 23 25 24 27 26 23 24 28 27 31 42 42 38 39 40 37 36 34 53 85 84 80 82 85 84 83 82 80 80 78 77 76 76 74 73 73 72 71 70 69 70 70 72 73
25 22 19 20 20 25 25 25 24 23 24 24 28 36 37 33 37 34 41 38 41 37 33 74 85 80 79 81 83 82 81 81 79 77 76 76 76 74 72 71 71 71 71 72 69 70 70 73 74
20 18 18 22 21 23 23 25 26 25 26 24 26 37 42 44 37 39 43 40 42 39 38 55 85 84 83 82 81 81 80 80 78 77 77 77 77 75 73 72 71 71 72 71 70 69 69 70 74
17 16 17 20 19 21 22 23 25 25 26 26 28 30 45 46 39 41 41 43 37 40 40 52 80 85 82 80 80 80 79 78 77 76 76 75 74 74 73 71 71 70 71 72 70 69 70 72 74
19 16 22 19 17 18 21 23 21 22 23 26 25 32 43 45 40 45 45 43 41 41 45 53 56 67 79 78 79 78 77 75 74 74 74 75 76 75 73 69 73 71 72 71 72 69 72 72 74
16 15 21 18 16 16 16 20 22 21 26 26 26 31 39 42 44 47 48 47 46 44 48 51 56 57 60 60 80 80 79 77 77 75 74 74 73 74 71 71 76 74 73 70 68 69 73 75 76
16 17 20 17 15 15 15 16 24 22 26 26 28 30 29 44 45 47 54 52 52 50 49 50 61 60 72 64 66 79 79 76 76 72 74 71 46 50 53 61 74 72 71 71 69 69 71 79 76
13 14 16 12 12 13 13 17 21 23 25 32 35 35 39 44 49 51 54 52 52 50 48 46 51 65 67 61 68 66 63 55 54 55 62 50 44 46 47 59 74 72 71 71 72 70 71 70 61
13 14 11 9 10 11 14 16 17 20 24 22 32 36 42 45 47 48 48 47 50 50 47 50 50 56 63 52 69 78 83 77 57 61 70 63 64 66 43 43 58 52 66 44 57 57 49 55 62
13 11 9 8 8 11 13 14 17 18 18 20 24 31 40 43 43 43 46 45 47 50 48 48 53 58 57 71 56 57 64 76 65 77 77 84 64 71 65 45 71 77 46 48 48 50 52 58 62
11 10 8 8 9 11 14 14 15 17 18 22 24 33 37 38 40 40 42 44 48 50 49 51 57 63 62 65 50 56 49 50 53 55 60 59 76 81 78 66 67 79 66 50 71 52 50 56 59
10 10 9 10 12 14 15 13 17 25 24 25 30 35 35 38 39 42 46 48 49 49 50 51 59 64 64 61 66 58 49 57 50 44 46 61 54 88 93 89 75 84 67 45 50 61 58 53 52
10 11 10 12 13 12 13 15 17 24 28 31 33 36 39 43 43 46 46 50 49 49 50 52 59 58 63 65 61 56 46 48 43 44 56 55 65 68 78 96 95 60 78 67 60 62 61 65 52
10 10 11 11 12 14 11 15 19 26 26 33 37 40 46 50 48 46 48 51 51 52 57 56 48 55 63 65 60 54 48 67 69 72 47 60 60 63 66 75 81 62 55 47 46 49 50 70 71
8 7 10 12 12 12 11 16 23 27 29 34 42 45 51 54 52 53 50 50 51 55 62 64 61 59 66 69 60 60 61 55 47 48 46 60 63 62 78 62 56 60 49 45 45 46 50 66 65
7 8 9 13 12 9 10 12 16 28 30 33 37 47 51 54 49 50 50 46 50 55 61 62 63 67 70 74 69 59 73 54 51 49 50 59 63 64 68 81 75 72 65 45 43 54 47 63 70
12 11 10 10 11 12 11 14 15 25 31 32 36 49 49 46 45 43 45 54 59 62 66 67 73 78 70 64 64 60 53 54 76 53 67 67 65 67 68 58 67 73 79 61 54 59 73 50 54
10 12 11 12 12 12 11 12 12 23 28 29 33 40 46 42 47 44 51 58 62 61 63 69 86 82 72 62 67 59 76 63 69 62 67 65 65 67 69 70 74 76 82 78 70 66 77 47 45
10 10 13 14 12 10 14 12 12 17 28 31 31 32 38 41 43 45 51 60 54 55 61 80 70 74 72 70 67 70 66 66 57 51 50 53 60 62 68 70 75 75 77 92 79 81 80 74 50
12 12 13 13 12 10 12 10 14 10 15 21 26 30 33 39 40 42 47 59 56 50 54 66 67 73 72 74 71 76 62 54 52 53 52 62 62 62 62 66 69 78 76 86 92 94 92 89 82
13 12 14 13 11 12 11 10 11 12 12 16 20 25 29 34 40 39 42 45 51 49 55 57 68 73 76 75 72 58 58 50 51 53 69 71 66 68 62 64 69 73 90 81 82 87 95 96 92
13 13 14 13 9 13 12 11 9 10 15 17 21 24 28 30 37 38 39 46 55 51 51 55 71 77 77 72 70 70 73 68 59 66 57 54 58 57 60 65 74 81 82 75 70 77 88 96 96
13 14 16 16 13 13 16 12 13 11 15 20 22 24 27 31 35 38 44 50 50 53 48 51 67 76 72 66 66 68 71 73 68 66 55 66 56 62 86 75 79 82 82 79 79 86 78 90 93
13 12 14 22 14 13 17 14 14 16 20 24 26 26 26 30 32 33 36 47 47 44 46 50 64 74 69 66 70 70 68 55 52 62 63 56 70 62 74 76 71 65 68 73 76 88 88 84 92
14 16 9 16 14 13 10 12 12 12 17 21 26 30 30 33 34 38 41 45 48 49 50 51 67 71 66 66 68 68 68 69 66 69 66 57 73 72 76 75 68 68 63 64 68 81 82 84 92
13 10 14 13 22 23 14 16 14 14 11 19 37 34 40 41 41 40 44 46 46 47 52 55 60 66 63 61 60 61 64 66 66 66 71 73 78 82 84 81 74 68 68 70 71 81 75 79 89
13 14 14 12 15 16 17 14 14 13 12 17 33 34 43 44 45 46 43 43 44 48 55 55 58 61 60 58 59 62 60 61 64 64 66 67 81 83 83 84 81 78 78 77 82 78 70 70 75
11 14 15 16 25 15 18 14 9 13 17 23 30 34 39 37 43 47 44 45 47 57 55 52 53 51 55 59 60 61 61 59 67 66 64 64 82 81 82 82 85 86 85 82 81 83 81 78 76

GFSSGP_sfc_rhum_030.txt.gz
RH
50 33 38 28 38 17 20 19 17 19 20 17 16 18 26 35 46 71 29 34 40 46 58 62 86 85 85 86 86 86 85 83 84 83 82 81 78 77 76 76 75 74 74 71 72 71 72 72 71
33 30 23 31 32 22 20 16 19 20 17 13 17 21 28 36 27 31 33 35 38 46 48 59 88 86 86 87 87 86 84 82 83 83 81 79 78 77 76 74 73 75 73 72 70 70 72 71 72
40 31 30 29 18 21 22 18 18 16 15 16 23 23 29 33 28 31 30 35 38 43 47 73 88 86 84 86 88 86 84 83 83 81 79 78 78 75 73 74 73 73 73 71 71 70 71 71 74
23 20 22 18 18 16 18 17 15 16 17 16 22 30 28 26 32 29 29 32 37 40 54 79 84 84 84 84 86 86 85 84 82 79 78 77 75 74 73 73 72 72 70 69 72 70 71 72 75
16 38 29 18 16 15 16 16 14 16 18 20 25 34 36 32 30 29 30 28 40 52 57 64 84 84 83 84 83 83 83 82 79 77 76 75 75 75 72 72 70 71 69 69 69 69 70 72 72
36 42 64 20 16 14 14 14 13 15 18 18 27 33 38 31 31 30 30 32 48 50 48 62 82 83 82 79 79 79 79 77 76 74 75 74 75 74 73 72 72 71 70 70 68 68 71 70 74
35 62 55 12 13 15 14 13 13 15 16 18 23 38 35 32 31 32 34 35 50 51 56 63 65 74 77 78 77 78 76 75 75 76 76 75 74 73 71 73 71 71 70 70 71 70 71 72 72
18 32 18 14 13 14 12 11 11 15 20 16 19 37 40 34 30 33 37 43 48 46 52 59 68 68 73 72 78 80 79 76 75 74 74 74 74 74 74 74 77 71 70 68 69 71 72 76 76
10 28 18 11 12 12 9 13 11 13 18 19 19 26 30 31 29 34 45 42 55 52 52 57 63 72 75 79 76 80 76 75 74 73 73 72 66 67 65 68 77 72 71 70 69 70 76 78 76
24 37 22 8 9 10 9 9 11 38 35 27 27 29 30 31 32 39 44 45 53 50 51 51 60 66 69 63 87 78 74 72 74 73 80 74 69 80 61 68 78 72 71 71 73 75 77 76 72
26 40 16 7 8 8 8 10 9 24 56 56 32 33 32 33 36 38 39 43 53 58 61 61 59 65 66 72 79 72 74 70 82 80 83 76 80 87 59 76 71 75 72 65 73 73 69 70 66
13 8 8 7 7 8 9 8 10 11 21 18 28 30 31 34 35 35 38 40 49 55 55 60 68 73 75 86 71 77 72 69 65 77 82 87 91 77 75 74 78 81 80 79 76 83 78 72 70
10 8 8 7 7 8 8 9 10 11 16 17 25 29 30 31 34 33 32 34 38 58 57 60 74 78 82 82 74 80 69 70 63 74 75 71 73 79 74 78 73 82 79 83 88 92 95 92 78
9 9 8 8 8 8 10 12 9 13 14 18 24 31 29 29 31 33 34 37 40 44 47 52 60 68 74 83 79 86 77 75 79 87 74 78 72 80 79 79 78 79 86 86 96 97 98 88 84
8 9 9 9 8 8 11 20 16 16 15 20 24 29 30 32 30 35 35 40 39 44 46 53 60 61 75 76 82 84 65 59 79 66 73 76 77 81 81 76 80 76 82 85 94 94 90 92 87
8 8 10 7 8 8 10 54 36 12 16 23 24 26 30 32 31 33 37 41 41 47 55 55 44 59 72 82 83 70 61 62 61 67 66 69 71 77 83 77 72 72 75 71 94 96 93 94 88
7 10 8 10 8 8 8 16 13 10 16 24 26 28 30 33 34 37 35 36 42 51 60 61 60 85 85 81 85 75 73 67 66 65 68 74 72 73 77 73 71 80 70 66 73 93 92 91 91
7 6 5 8 7 8 8 9 12 12 14 25 27 31 33 36 34 35 36 35 40 50 59 63 95 96 96 97 93 96 75 68 74 79 70 77 81 75 85 81 77 87 87 73 77 88 86 86 90
7 8 7 6 6 9 9 10 9 13 13 19 29 38 36 37 35 36 37 38 40 45 65 87 93 98 93 96 99 98 92 79 73 68 64 73 73 74 83 88 91 91 89 88 87 89 84 94 94
6 6 6 6 6 10 10 9 8 9 12 13 21 34 36 34 36 40 46 43 44 50 76 88 94 94 93 95 99 98 91 79 77 82 72 71 72 77 82 87 91 89 92 89 88 89 92 92 88
5 6 6 7 8 9 9 11 10 8 12 11 12 28 32 33 36 44 46 50 44 53 57 72 85 88 89 92 96 97 87 88 85 82 80 74 66 71 77 78 86 90 94 95 91 90 89 97 95
8 7 6 6 8 10 8 13 16 11 13 13 14 15 27 31 39 45 46 48 48 50 63 70 77 84 88 90 92 84 89 81 77 78 78 73 69 72 74 79 80 88 94 94 91 91 92 94 96
7 8 9 8 10 11 9 9 21 17 12 14 15 16 18 30 35 41 41 47 50 49 56 62 69 76 75 80 81 91 80 76 71 72 74 81 79 72 69 79 84 88 94 91 92 91 92 93 94
6 9 9 9 9 13 11 9 12 19 20 11 14 15 18 28 33 37 40 48 53 50 53 59 75 82 76 75 76 80 81 80 76 78 75 71 71 78 84 81 87 88 91 91 93 91 90 92 85
8 10 15 17 16 21 32 15 16 9 10 12 14 17 18 26 33 37 48 50 53 53 54 58 75 81 77 72 71 74 77 77 80 78 73 79 68 73 84 85 90 93 88 88 90 92 91 92 92
10 11 15 24 16 26 21 32 21 10 9 13 14 14 18 25 32 34 42 47 50 52 54 59 76 81 79 70 75 75 76 73 68 78 76 72 74 77 84 84 84 84 77 78 85 93 93 90 94
10 13 9 13 12 11 11 18 15 16 11 14 16 18 23 27 31 35 37 43 49 55 55 56 77 79 74 71 76 77 76 78 77 79 79 73 84 75 84 82 84 84 87 90 94 95 92 90 93
9 7 12 13 24 23 12 30 46 44 38 19 23 22 29 28 28 32 35 44 44 49 53 52 72 78 73 69 73 73 73 74 78 77 82 84 85 86 85 82 82 85 86 87 92 97 96 90 94
10 11 10 9 14 18 20 26 38 43 24 29 24 25 29 27 26 30 34 39 39 43 48 64 70 72 68 67 69 70 68 71 74 74 79 82 86 85 85 83 84 84 83 84 90 88 87 89 91
8 11 12 14 25 16 16 24 19 25 24 14 21 26 27 28 28 32 38 40 42 44 45 68 68 64 60 63 66 67 74 70 74 73 76 79 83 81 81 81 86 87 86 86 88 90 90 89 89

GFSSGP_sfc_rhum_033.txt.gz
RH
50 36 60 63 64 36 31 28 24 25 24 26 28 33 41 39 49 88 61 61 64 74 81 79 87 87 87 88 87 87 85 81 82 83 82 80 82 78 76 76 75 74 73 72 73 72 73 73 73
43 39 42 46 49 37 35 24 27 24 26 30 29 31 42 50 46 58 63 59 64 69 81 86 89 88 88 88 88 87 84 80 82 82 80 82 80 78 75 74 74 75 74 73 73 73 73 73 74
36 33 51 45 34 38 35 22 23 21 26 31 34 34 37 45 40 48 53 58 59 68 83 86 90 89 88 89 88 87 85 84 82 81 79 79 78 77 74 74 74 74 73 73 72 73 72 72 75
26 40 46 46 29 25 23 20 20 25 26 26 31 42 42 36 38 45 50 52 57 74 82 88 88 85 86 89 88 87 86 86 84 81 79 79 76 75 75 74 74 72 72 73 73 71 73 73 75
48 53 65 44 25 22 21 17 21 24 31 34 37 52 53 42 39 42 46 48 68 76 83 86 88 88 88 89 88 88 87 86 84 80 78 77 78 77 76 74 73 72 71 72 72 71 73 73 74
41 46 62 58 24 21 20 18 19 21 31 34 42 49 53 40 39 43 48 62 72 75 82 81 86 87 86 84 84 84 82 81 80 78 78 78 79 80 79 74 73 72 72 74 72 71 72 72 73
45 63 53 42 24 26 21 20 19 20 30 35 36 53 51 41 41 50 61 71 75 71 77 86 86 80 80 80 80 81 80 78 81 80 82 80 78 77 78 79 78 73 72 72 67 70 72 72 74
30 56 47 46 20 21 20 16 18 21 25 29 33 51 58 44 42 53 58 61 66 67 76 81 86 88 90 88 83 83 82 80 78 78 78 77 76 75 74 83 81 74 72 71 70 70 73 78 71
26 61 66 49 26 17 16 22 26 25 30 31 31 38 39 40 41 49 60 61 69 69 70 77 81 88 89 91 83 84 79 77 76 76 74 79 88 86 78 79 78 74 72 71 70 73 77 78 74
30 49 45 22 12 13 11 21 22 33 28 40 42 38 36 38 49 56 62 68 68 71 72 73 76 81 87 75 92 94 85 88 89 87 87 89 86 87 75 77 75 74 72 72 75 78 77 76 86
26 24 23 15 10 10 13 23 26 34 45 38 47 43 39 40 53 57 57 62 66 65 68 73 73 79 80 84 96 97 95 95 96 93 93 94 90 94 77 95 88 95 81 80 82 82 83 84 82
23 19 13 10 9 10 11 22 32 30 33 27 37 39 40 44 50 52 54 58 65 67 62 67 69 84 88 96 97 95 93 91 91 92 92 95 97 90 91 96 94 96 96 92 87 96 90 86 79
17 14 9 10 10 11 11 14 26 25 28 33 33 36 42 44 47 48 49 53 59 68 71 74 82 86 90 91 94 96 96 88 95 91 88 95 95 94 87 93 94 93 94 95 96 96 94 91 89
12 11 10 10 11 10 16 20 16 24 29 32 34 41 39 44 45 45 49 56 59 60 69 75 82 86 90 91 89 93 94 88 93 95 91 89 94 94 90 94 87 93 94 97 97 96 94 96 95
12 13 11 11 11 13 17 21 23 21 25 34 36 37 40 46 44 49 48 52 59 62 63 71 76 78 92 88 89 87 81 91 98 94 87 86 87 89 90 91 91 84 81 97 97 96 95 97 95
12 13 17 11 11 16 18 34 19 21 25 34 36 36 40 47 47 47 48 47 60 60 66 75 89 93 93 96 97 95 96 88 81 88 74 79 84 87 94 93 95 96 94 90 96 97 96 94 94
12 16 15 15 11 12 13 31 22 20 26 33 36 40 43 48 50 50 49 50 56 62 83 95 95 94 94 96 96 94 95 97 84 72 80 83 88 84 92 95 96 93 94 97 88 97 93 95 95
14 16 11 16 12 10 13 18 22 22 28 33 38 46 47 48 48 49 48 47 52 66 94 96 98 96 92 92 94 93 96 96 96 75 73 79 88 81 90 93 94 95 96 95 96 96 98 98 98
9 10 10 10 10 13 16 17 19 19 29 34 42 51 48 47 47 47 46 50 58 69 94 96 97 94 96 98 97 97 99 98 97 76 75 85 84 80 89 95 96 96 96 95 96 96 95 98 95
8 9 10 8 12 13 16 14 13 20 21 34 40 47 49 51 53 50 57 57 59 88 96 97 96 96 95 98 99 99 99 99 97 90 76 79 82 84 88 92 94 93 96 94 94 94 98 98 98
8 10 9 11 11 13 17 20 17 14 19 33 39 42 45 48 56 60 60 64 63 73 92 96 94 91 86 96 98 97 97 98 97 87 90 85 73 76 82 86 91 94 95 97 95 95 95 97 98
12 9 9 10 13 18 15 24 23 21 22 20 41 45 45 48 56 59 68 69 63 73 83 92 90 93 95 95 97 95 97 97 87 90 88 83 77 77 81 91 91 94 97 96 97 96 94 96 97
10 10 14 15 16 21 18 24 22 23 29 35 30 40 41 50 54 59 66 63 62 74 79 84 91 96 93 96 97 97 96 92 89 85 82 85 89 85 86 92 94 95 97 97 96 96 94 96 97
8 11 16 18 18 26 34 31 33 26 33 48 35 30 41 51 52 58 64 64 70 68 76 82 88 92 91 93 92 89 90 90 90 89 89 87 90 96 95 92 96 96 96 96 97 95 95 97 96
12 24 31 38 34 39 29 26 30 20 22 28 31 36 41 46 53 61 67 71 74 73 77 83 91 93 88 84 86 86 85 88 90 91 92 93 97 98 96 96 97 98 96 93 95 95 95 95 96
15 18 32 39 33 41 33 34 31 23 22 23 21 30 40 46 53 58 62 69 65 68 75 84 90 93 90 86 87 91 86 92 95 90 97 98 97 94 90 96 95 95 94 96 95 96 96 92 95
16 24 16 24 28 26 34 34 32 29 26 24 23 28 43 46 51 57 58 63 67 71 81 83 93 89 84 88 88 87 90 90 89 92 96 97 85 83 94 94 95 94 96 96 96 98 97 95 93
13 15 19 30 36 38 28 44 44 43 46 38 39 39 48 50 49 56 58 62 68 69 74 83 89 90 89 86 86 85 89 90 87 95 96 93 83 88 95 95 94 94 94 95 96 97 96 96 97
17 18 25 20 31 34 36 50 45 49 48 48 61 44 47 47 47 53 56 59 73 63 66 85 86 90 86 83 84 85 87 84 86 94 94 85 84 89 95 91 87 89 91 92 94 94 95 95 95
14 17 26 33 28 36 33 47 46 47 44 64 83 71 40 44 49 55 56 69 59 62 82 91 86 84 80 82 81 88 86 84 88 89 81 79 84 92 93 94 88 92 92 90 89 90 92 97 98